Flag for Brazil

Past Weather in Caruaru, Pernambuco, Brazil — Yesterday and Last 2 Weeks

Now
73 °F

Light rain. Broken clouds.


Feels Like: 70 °F
Forecast: 82 / 64 °F
Wind: 6 mph from South

Location: Recife Aeroporto

Current Time: Jul 3, 2020 at 8:31:45 am

Latest Report: Jul 3, 2020 at 8:00 am


Visibility: 3 mi

Pressure: 30.01 "Hg (28.15 "Hg at 554m altitude)

Humidity: 94%

Dew Point: 72 °F

Location of CaruaruLocation

Past Weather in Caruaru — Graph

°F

Caruaru Temperature Yesterday

Maximum temperature yesterday: 84 °F (at 12:00 pm)
Minimum temperature yesterday: 73 °F (at 1:00 am)
Average temperature yesterday: 78 °F

High & Low Weather Summary for the Past Weeks

 TemperatureHumidityPressure
High86 °F (Jun 20, 1:00 pm)94% (Jun 18, 7:00 pm)30.04 "Hg (Jun 18, 7:00 pm)
Low72 °F (Jun 27, 12:00 am)48% (Jun 21, 7:00 am)29.86 "Hg (Jun 27, 2:00 pm)
Average79 °F76%29.95 "Hg
* Reported Jun 18 7:00 am — Jul 3 7:00 am, Caruaru. Weather by CustomWeather, © 2020

Note: Actual official high and low records may vary slightly from our data, if they occured in-between our weather recording intervals... More about our weather records

Caruaru Weather History for the Previous 24 Hours

Scroll right to see more
 ConditionsComfort  
Time TempWeatherWind HumidityBarometerVisibility
7:00 am
Fri, Jul 3
73 °FScattered showers. Partly sunny.7 mph94%29.98 "Hg5 mi
6:00 am73 °FLight rain. Fog.6 mph94%29.95 "Hg2 mi
5:00 am73 °FPassing clouds.3 mph94%29.92 "HgN/A
4:00 am73 °FLight rain. Partly cloudy.10 mph94%29.92 "Hg3 mi
3:00 am73 °FPassing clouds.6 mph94%29.92 "HgN/A
2:00 am75 °FPassing clouds.6 mph94%29.92 "HgN/A
1:00 am75 °FPassing clouds.3 mph94%29.95 "HgN/A
12:00 am75 °FPassing clouds.3 mph89%29.95 "HgN/A
11:00 pm
Thu, Jul 2
77 °FPassing clouds.3 mph89%29.98 "HgN/A
10:00 pm77 °FPassing clouds.3 mph89%29.98 "HgN/A
9:00 pm79 °FPassing clouds.5 mph84%29.95 "HgN/A
8:00 pm79 °FPassing clouds.7 mph84%29.95 "HgN/A
7:00 pm79 °FPassing clouds.8 mph84%29.92 "HgN/A
6:00 pm79 °FPassing clouds.8 mph84%29.92 "HgN/A
5:00 pm81 °FPassing clouds.7 mph74%29.89 "HgN/A
4:00 pm82 °FPassing clouds.9 mph70%29.89 "HgN/A
3:00 pm82 °FPassing clouds.8 mph70%29.89 "HgN/A
2:00 pm82 °FScattered clouds.8 mph70%29.89 "HgN/A
1:00 pm84 °FScattered clouds.9 mph70%29.89 "HgN/A
12:00 pm84 °FScattered clouds.9 mph66%29.98 "HgN/A
11:00 am82 °FScattered clouds.8 mph70%29.95 "HgN/A
10:00 am82 °FScattered clouds.5 mph66%29.95 "HgN/A
9:00 am81 °FScattered clouds.5 mph74%29.98 "HgN/A
8:00 am77 °FBroken clouds.5 mph83%29.95 "HgN/A
Weather by CustomWeather, © 2020

See weather overview